Location: B�hl
(48.6968°N, 8.1352°E)
Time: 03:44:18
(UTC+00:00)

ERS-2 - Pass Details

Date: 08 March 2021
Orbit: 492 x 496 km, 98.6° (Epoch: 16 April)

Event Time Altitude Azimuth Distance (km) Brightness Sun altitude
Rises 18:09:13 0° 19° (NNE) 2,596 5.6 -8.6°
Reaches altitude 10° 18:11:21 10° 24° (NNE) 1,708 4.6 -8.9°
Maximum altitude 18:14:56 51° 102° (ESE) 635 2.2 -9.5°
Drops below altitude 10° 18:18:29 10° 179° (S) 1,694 4.8 -10.1°
Sets 18:20:35 0° 184° (S) 2,572 5.7 -10.4°
